QFA380 YSSY-KLAX

Flight info

Callsign QFA380
Flight time N/A
Altitude 35000
Route DIPSO G595 SOTKI DCT UBLIN A579 TANIL/N0478F370 DCT NN B581 WOOBY DCT 02N160W/N0477F390 11N150W DCT CAMOS DCT 19N140W 26N130W/N0466F410 DCT FICKY GOATZ2
Aircraft A388/J-SADE2E3FGHIJ3J4J5M1RWXY/LB1D1

Departure

Time 2026-05-06 19:24
Airport Sydney Kingsford Smith International Airport (YSSY)

Arrival

Time N/A
Airport Los Angeles International Airport (KLAX)
Time Latitude Longitude Altitude Speed Heading
2026-05-06 18:31 -33.93400 151.16787 35 ft 0 kts 258°
2026-05-06 18:57 -33.93396 151.16809 34 ft 3 kts 258°
2026-05-06 18:57 -33.93392 151.16831 31 ft 3 kts 260°
2026-05-06 18:58 -33.93390 151.16857 32 ft 3 kts 272°
2026-05-06 18:58 -33.93393 151.16880 31 ft 3 kts 294°
2026-05-06 18:58 -33.93401 151.16893 33 ft 3 kts 329°
2026-05-06 18:58 -33.93418 151.16899 32 ft 3 kts 347°
2026-05-06 18:59 -33.93440 151.16905 34 ft 3 kts 347°
2026-05-06 18:59 -33.93454 151.16909 34 ft 2 kts 347°
2026-05-06 19:04 -33.93452 151.16909 35 ft 1 kts 347°
2026-05-06 19:04 -33.93434 151.16904 35 ft 5 kts 347°
2026-05-06 19:04 -33.93394 151.16893 35 ft 6 kts 347°
2026-05-06 19:04 -33.93350 151.16888 35 ft 7 kts
2026-05-06 19:05 -33.93310 151.16910 35 ft 6 kts 45°
2026-05-06 19:05 -33.93289 151.16960 35 ft 7 kts 85°
2026-05-06 19:05 -33.93302 151.17015 35 ft 7 kts 126°
2026-05-06 19:05 -33.93342 151.17054 35 ft 7 kts 154°
2026-05-06 19:06 -33.93391 151.17075 35 ft 8 kts 167°
2026-05-06 19:06 -33.93443 151.17089 34 ft 8 kts 167°
2026-05-06 19:06 -33.93499 151.17104 34 ft 8 kts 167°
2026-05-06 19:06 -33.93554 151.17117 34 ft 8 kts 169°
2026-05-06 19:07 -33.93610 151.17131 34 ft 8 kts 167°
2026-05-06 19:07 -33.93667 151.17146 34 ft 8 kts 168°
2026-05-06 19:07 -33.93722 151.17161 34 ft 8 kts 168°
2026-05-06 19:07 -33.93780 151.17176 34 ft 9 kts 168°
2026-05-06 19:08 -33.93838 151.17191 34 ft 9 kts 168°
2026-05-06 19:08 -33.93896 151.17205 34 ft 8 kts 168°
2026-05-06 19:08 -33.93952 151.17219 34 ft 8 kts 168°
2026-05-06 19:08 -33.94005 151.17233 34 ft 8 kts 167°
2026-05-06 19:09 -33.94058 151.17248 34 ft 8 kts 167°
2026-05-06 19:09 -33.94114 151.17264 33 ft 9 kts 167°
2026-05-06 19:09 -33.94173 151.17280 33 ft 9 kts 167°
2026-05-06 19:09 -33.94229 151.17292 34 ft 7 kts 171°
2026-05-06 19:10 -33.94275 151.17302 35 ft 6 kts 168°
2026-05-06 19:10 -33.94318 151.17313 35 ft 6 kts 167°
2026-05-06 19:10 -33.94359 151.17325 35 ft 6 kts 167°
2026-05-06 19:10 -33.94399 151.17336 35 ft 6 kts 167°
2026-05-06 19:11 -33.94441 151.17348 35 ft 6 kts 167°
2026-05-06 19:11 -33.94485 151.17360 35 ft 7 kts 167°
2026-05-06 19:11 -33.94529 151.17374 35 ft 6 kts 158°
2026-05-06 19:11 -33.94570 151.17394 35 ft 7 kts 159°
2026-05-06 19:12 -33.94611 151.17410 35 ft 6 kts 166°
2026-05-06 19:12 -33.94652 151.17419 35 ft 6 kts 175°
2026-05-06 19:12 -33.94694 151.17423 35 ft 6 kts 177°
2026-05-06 19:12 -33.94737 151.17426 35 ft 6 kts 174°
2026-05-06 19:13 -33.94783 151.17436 35 ft 7 kts 167°
2026-05-06 19:13 -33.94830 151.17449 35 ft 7 kts 167°
2026-05-06 19:13 -33.94880 151.17462 34 ft 7 kts 167°
2026-05-06 19:13 -33.94931 151.17476 34 ft 7 kts 167°
2026-05-06 19:14 -33.94980 151.17489 34 ft 7 kts 168°
2026-05-06 19:14 -33.95028 151.17501 34 ft 7 kts 168°
2026-05-06 19:14 -33.95075 151.17512 34 ft 7 kts 168°
2026-05-06 19:14 -33.95123 151.17524 34 ft 7 kts 168°
2026-05-06 19:15 -33.95171 151.17536 34 ft 7 kts 167°
2026-05-06 19:15 -33.95220 151.17549 34 ft 7 kts 167°
2026-05-06 19:15 -33.95270 151.17563 34 ft 7 kts 167°
2026-05-06 19:15 -33.95318 151.17576 34 ft 7 kts 167°
2026-05-06 19:16 -33.95364 151.17588 34 ft 7 kts 167°
2026-05-06 19:16 -33.95409 151.17600 34 ft 7 kts 169°
2026-05-06 19:16 -33.95453 151.17610 34 ft 6 kts 169°
2026-05-06 19:16 -33.95497 151.17620 35 ft 6 kts 168°
2026-05-06 19:17 -33.95539 151.17631 35 ft 6 kts 167°
2026-05-06 19:17 -33.95581 151.17642 35 ft 6 kts 167°
2026-05-06 19:17 -33.95622 151.17653 35 ft 6 kts 167°
2026-05-06 19:17 -33.95662 151.17664 35 ft 6 kts 167°
2026-05-06 19:18 -33.95702 151.17674 35 ft 6 kts 167°
2026-05-06 19:18 -33.95743 151.17685 35 ft 6 kts 167°
2026-05-06 19:18 -33.95796 151.17699 35 ft 9 kts 167°
2026-05-06 19:18 -33.95855 151.17715 35 ft 9 kts 167°
2026-05-06 19:19 -33.95912 151.17730 35 ft 8 kts 167°
2026-05-06 19:19 -33.95967 151.17744 35 ft 8 kts 168°
2026-05-06 19:19 -33.96021 151.17758 35 ft 8 kts 168°
2026-05-06 19:19 -33.96070 151.17771 35 ft 7 kts 168°
2026-05-06 19:20 -33.96119 151.17783 35 ft 7 kts 168°
2026-05-06 19:20 -33.96168 151.17796 35 ft 7 kts 168°
2026-05-06 19:20 -33.96218 151.17809 35 ft 7 kts 168°
2026-05-06 19:20 -33.96269 151.17822 35 ft 7 kts 168°
2026-05-06 19:21 -33.96318 151.17834 35 ft 7 kts 168°
2026-05-06 19:21 -33.96365 151.17846 35 ft 7 kts 168°
2026-05-06 19:21 -33.96410 151.17861 35 ft 6 kts 152°
2026-05-06 19:21 -33.96436 151.17899 35 ft 6 kts 98°
2026-05-06 19:22 -33.96432 151.17960 35 ft 8 kts 78°
2026-05-06 19:22 -33.96413 151.18030 35 ft 8 kts 48°
2026-05-06 19:22 -33.96365 151.18049 35 ft 8 kts 356°
2026-05-06 19:22 -33.96309 151.18035 34 ft 9 kts 346°
2026-05-06 19:23 -33.96234 151.18014 33 ft 19 kts 347°
2026-05-06 19:23 -33.95860 151.17914 33 ft 92 kts 349°
2026-05-06 19:23 -33.95021 151.17696 32 ft 150 kts 348°
2026-05-06 19:23 -33.93879 151.17419 146 ft 176 kts 348°
2026-05-06 19:24 -33.92698 151.17189 732 ft 171 kts 346°
2026-05-06 19:24 -33.91512 151.16930 1098 ft 180 kts 344°
2026-05-06 19:24 -33.90234 151.16645 1464 ft 185 kts 345°
2026-05-06 19:24 -33.88948 151.16812 1887 ft 202 kts 18°
2026-05-06 19:25 -33.87814 151.17958 2061 ft 222 kts 57°
2026-05-06 19:25 -33.87323 151.19725 2178 ft 232 kts 82°
2026-05-06 19:25 -33.87211 151.21695 2259 ft 241 kts 91°
2026-05-06 19:25 -33.87254 151.23801 2382 ft 262 kts 94°
2026-05-06 19:26 -33.87363 151.26060 2718 ft 277 kts 96°
2026-05-06 19:26 -33.87483 151.28381 3435 ft 278 kts 96°
2026-05-06 19:26 -33.87595 151.30699 4191 ft 277 kts 95°
2026-05-06 19:26 -33.87700 151.33010 4942 ft 276 kts 94°
2026-05-06 19:27 -33.87802 151.35330 5572 ft 281 kts 94°
2026-05-06 19:27 -33.87902 151.37684 6302 ft 283 kts 93°
2026-05-06 19:27 -33.88002 151.40057 6927 ft 285 kts 93°
2026-05-06 19:27 -33.88103 151.42465 7503 ft 291 kts 92°
2026-05-06 19:28 -33.88204 151.44906 8155 ft 293 kts 92°
2026-05-06 19:28 -33.88306 151.47358 8810 ft 296 kts 92°
2026-05-06 19:28 -33.88410 151.49851 9426 ft 300 kts 92°
2026-05-06 19:28 -33.88514 151.52377 10025 ft 304 kts 91°
2026-05-06 19:29 -33.88619 151.54967 10325 ft 319 kts 91°
2026-05-06 19:29 -33.88730 151.57713 10504 ft 337 kts 91°
2026-05-06 19:29 -33.88845 151.60592 10661 ft 353 kts 91°
2026-05-06 19:29 -33.88967 151.63608 10889 ft 366 kts 91°
2026-05-06 19:30 -33.89092 151.66696 11361 ft 371 kts 91°
2026-05-06 19:30 -33.89217 151.69797 11904 ft 373 kts 91°
2026-05-06 19:30 -33.89341 151.72929 12417 ft 377 kts 91°
2026-05-06 19:30 -33.89466 151.76092 12934 ft 380 kts 91°
2026-05-06 19:31 -33.89591 151.79288 13438 ft 384 kts 90°
2026-05-06 19:31 -33.89716 151.82511 13948 ft 387 kts 90°
2026-05-06 19:31 -33.89965 151.88987 14877 ft 393 kts 90°
2026-05-06 19:32 -33.90090 151.92273 15363 ft 395 kts 90°
2026-05-06 19:32 -33.90216 151.95589 15867 ft 396 kts 90°
2026-05-06 19:32 -33.90341 151.98916 16301 ft 400 kts 90°
2026-05-06 19:32 -33.90465 152.02271 16734 ft 403 kts 90°
2026-05-06 19:33 -33.90590 152.05642 17196 ft 406 kts 90°
2026-05-06 19:33 -33.90707 152.09061 17626 ft 408 kts 89°
2026-05-06 19:33 -33.90748 152.12484 18053 ft 411 kts 87°
2026-05-06 19:33 -33.90754 152.15930 18456 ft 413 kts 87°
2026-05-06 19:34 -33.90759 152.19400 18786 ft 417 kts 87°
2026-05-06 19:34 -33.90772 152.22905 19129 ft 420 kts 87°
2026-05-06 19:34 -33.90791 152.26433 19479 ft 423 kts 87°
2026-05-06 19:34 -33.90813 152.29987 19830 ft 426 kts 87°
2026-05-06 19:35 -33.90835 152.33559 20176 ft 429 kts 87°
2026-05-06 19:35 -33.90857 152.37165 20518 ft 432 kts 87°
2026-05-06 19:35 -33.90878 152.40783 20854 ft 434 kts 87°
2026-05-06 19:35 -33.90898 152.44435 21195 ft 437 kts 87°
2026-05-06 19:36 -33.90916 152.48109 21523 ft 440 kts 87°
2026-05-06 19:36 -33.90934 152.51799 21842 ft 443 kts 87°
2026-05-06 19:36 -33.90951 152.55521 22207 ft 445 kts 87°
2026-05-06 19:36 -33.90967 152.59254 22541 ft 448 kts 87°
2026-05-06 19:37 -33.90981 152.63012 22866 ft 451 kts 87°
2026-05-06 19:37 -33.90995 152.66794 23188 ft 453 kts 86°
2026-05-06 19:37 -33.91007 152.70602 23507 ft 456 kts 86°
2026-05-06 19:37 -33.91015 152.73135 23690 ft 458 kts 86°
2026-05-06 19:38 -33.91029 152.78226 24054 ft 461 kts 86°
2026-05-06 19:38 -33.91038 152.82099 24318 ft 464 kts 86°
2026-05-06 19:38 -33.91046 152.86030 24603 ft 465 kts 86°
2026-05-06 19:38 -33.91053 152.89934 24884 ft 468 kts 86°
2026-05-06 19:39 -33.91058 152.93817 25160 ft 470 kts 86°
2026-05-06 19:39 -33.91063 152.97761 25446 ft 473 kts 86°
2026-05-06 19:39 -33.91066 153.01730 25746 ft 475 kts 86°
2026-05-06 19:39 -33.91068 153.05714 26044 ft 478 kts 86°
2026-05-06 19:40 -33.91068 153.09717 26333 ft 480 kts 86°
2026-05-06 19:40 -33.91068 153.13759 26633 ft 483 kts 86°
2026-05-06 19:40 -33.91065 153.17810 26977 ft 484 kts 86°
2026-05-06 19:40 -33.91062 153.21876 27274 ft 488 kts 86°
2026-05-06 19:41 -33.91058 153.25975 27597 ft 491 kts 86°
2026-05-06 19:41 -33.91052 153.30092 27934 ft 493 kts 85°